Location: *
(45.5224°N, 122.7471°W)
Time: 22:16:16
(UTC+00:00)

Landsat 5 - Pass Details

Date: 09 April 2020
Orbit: 529 x 654 km, 98.2° (Epoch: 02 June)

Event Time Altitude Azimuth Distance (km) Brightness Sun altitude
Exits shadow 12:04:19 30° 254° (WSW) 968 4.0 -15.7°
Maximum altitude 12:04:36 31° 263° (W) 961 4.0 -15.7°
Drops below altitude 10° 12:08:03 10° 326° (NNW) 1,803 5.9 -15.1°
Sets 12:10:23 0° 337° (NNW) 2,713 6.9 -14.8°
